Regional Weather Roundup
Issued by NWS

Home | Current Version | Previous Version | Text Only | Print | Product List | Glossary On
Versions: 1 2 3 4 5 6 7 8 9 10 11 12 13 14 15 16 17 18 19 20 21 22 23 24 25 26 27 28 29 30 31 32 33 34 35 36 37 38 39 40 41 42 43 44 45 46 47 48 49 50
000
ASUS46 KSTO 190304
RWRCA

NORTHERN AND CENTRAL CA REGIONAL WEATHER ROUNDUP
NATIONAL WEATHER SERVICE SACRAMENTO CA
700 PM PST WED JAN 18 2017

NOTE: FAIR INDICATES FEW OR NO CLOUDS BELOW 12,000 FEET WITH NO
SIGNIFICANT WEATHER AND/OR OBSTRUCTIONS TO VISIBILITY.

CAZ001-003-190400-
NORTHWEST AREA

CITY           SKY/WX    TMP DP  RH WIND       PRES   REMARKS
CRESCENT CITY  CLOUDY    51  49  92 S15       29.56R
UKIAH          HVY RAIN  48  47  96 CALM      29.67S FOG
$$

CAZ006-505>513-190400-
BAY AREA

CITY           SKY/WX    TMP DP  RH WIND       PRES   REMARKS
SANTA ROSA     RAIN      50  49  96 VRB7      29.67R FOG
SAN RAFAEL     N/A       51  MM  MM MISG
NAPA           RAIN      54  49  83 S13       29.70F
CONCORD        LGT RAIN  52  46  80 S14       29.70R
OAKLAND CITY   N/A       52  MM  MM MISG
OAKLAND        LGT RAIN  53  50  89 SE24      29.73R
SAN FRAN CITY  N/A       51  MM  98 MISG
SAN FRAN ARPT  LGT RAIN  54  50  86 S28G37    29.71S FOG
LIVERMORE      CLOUDY    52  44  74 CALM      29.70F
HAYWARD        LGT RAIN  53  46  77 S21G31    29.72R
REDWOOD CITY   N/A       MM  MM  MM MISG
MOFFETT ARPT   LGT RAIN  52  48  86 SE23G32   29.73S
SAN JOSE ARPT  LGT RAIN  52  48  86 E33G43    29.74S
$$
CAZ034-037-514>518-190400-
CENTRAL COAST

CITY           SKY/WX    TMP DP  RH WIND       PRES   REMARKS
WATSONVILLE    RAIN      51  50  96 VRB3      29.80F
SALINAS        CLOUDY    52  47  83 E37G47    29.78F
MONTEREY       CLOUDY    58  47  66 SE13G18   29.77S
SAN LUIS OBISP CLOUDY    54  47  77 SE9       29.94F
SANTA MARIA    CLOUDY    52  47  83 SE14      29.94F
$$
CAZ015-016-190400-
NORTHERN SACRAMENTO VALLEY

CITY           SKY/WX    TMP DP  RH WIND       PRES   REMARKS
REDDING        LGT RAIN  44  42  93 S33G49    29.67S
RED BLUFF      HVY RAIN  46  45  96 S17G26    29.72F FOG
OROVILLE       RAIN      48  43  82 S24G33    29.73S
$$
CAZ016>018-190400-
SOUTHERN SACRAMENTO VALLEY

CITY           SKY/WX    TMP DP  RH WIND       PRES   REMARKS
AUBURN         CLOUDY    46  43  87 SE18G29   29.73S
LINCOLN        CLOUDY    48  41  76 S30G40    29.70F
MARYSVILLE     LGT RAIN  49  43  80 S28G41    29.72F
SAC INTL ARPT  CLOUDY    49  45  86 SE36G51   29.69F
MATHER AIRPORT CLOUDY    48  45  87 SE28G43   29.74F
DOWNTOWN SAC   N/A       49  MM  MM MISG
SAC EXEC ARPT  LGT RAIN  48  45  89 SE25G49   29.73F
VACAVILLE      RAIN      48  46  93 SE23G46   29.71F FOG
TRAVIS AFB     LGT RAIN  47  46  95 SE49G61   29.66F FOG
$$
CAZ019>021-190400-
SAN JOAQUIN VALLEY

CITY           SKY/WX    TMP DP  RH WIND       PRES   REMARKS
STOCKTON       RAIN      48  45  89 SE29G43   29.79F FOG
MODESTO        CLOUDY    51  42  71 SE23G45   29.80F
MERCED         CLOUDY    48  43  82 SE26G40   29.88F
LEMOORE        CLOUDY    48  45  89 SE20      29.96F
FRESNO         LGT RAIN  48  44  86 SE16      29.98R
HANFORD        CLOUDY    49  46  90 E7        29.99F
PORTERVILLE    LGT RAIN  48  45  89 SE3       29.99F
BAKERSFIELD    LGT RAIN  50  45  83 SE5       29.98F
$$
CAZ011-012-071-190400-
NORTHERN MOUNTAINS

CITY           SKY/WX    TMP DP  RH WIND       PRES   REMARKS
YREKA          CLOUDY    39  32  76 S26G37    29.57R WCI  28
MOUNT SHASTA   LGT SNOW  33  31  92 VRB7      29.62F VSB 3/4 WCI  27
ALTURAS        CLOUDY    39  33  79 S13       29.60F WCI  31
$$
CAZ011-012-071-190400-
SIERRA NEVADA MTNS

CITY           SKY/WX    TMP DP  RH WIND       PRES   REMARKS
BLUE CANYON    RAIN      35  35 100 SE14G29   29.70F WCI  26
TRUCKEE        RAIN      34  32  93 S10G18    29.69F WCI  26
TAHOE VLY ARPT LGT SNOW  36  32  85 S12G23    29.70F FOG     WCI  28
MAMMOTH LAKES  LGT SNOW  30  30  99 E18G26    29.85F WCI  18
$$




USA.gov is the U.S. government's official web portal to all federal, state and local government web resources and services.